STARLINK-37022, 68101

Orbit data source: Space-Track

STARLINK-37022, 68101 is a payload satellite owned by SpaceX/Seattle (US) in SSO that was launched on Sun, 08 Mar 2026 UTC via an FALCON 9 launch vehicle from the Air Force Western Test Range (AFWTR). Payload-class satellites include a variety of spacecraft equipped with specific instruments for various scientific and technological missions. These include communications satellites like Starlink; space stations such as the ISS; scientific satellites like the Hubble; Earth observation satellites from companies like Planet Labs, Umbra, and HawkEye 360; GPS; miniature CubeSats for education and research; and military/defense satellites.

Loading next visibility...
Identifier
68101, 2026-044A
Orbit
SSO
Country
Flag of USUS
Related business
Manufacturer
SpaceX/Seattle
Mission
Operational Commercial Communications
Bus & Motor
STARLINK V2MO, Unknown motor
Mass
575 kg wet, ~530 kg dry
Launch date (UTC)
2026-03-08 (6 months ago)
Launch vehicle
FALCON 9
Launch site
Air Force Western Test Range (AFWTR)
Object type
Payload
Rocket body
Debris
Shape & HBR
Box + 1 Pan, 17.7 m
Radar Cross Section
41.120 m², Large (>1 m²)

Expand to show TLE details & history
Last TLE update: 5 hours ago

TLE from 5 hours ago
0 STARLINK-37022
1 68101U 26044A   26247.19338700  .00010719  00000-0  33384-3 0  9996
2 68101  97.2854 206.2942 0001971  86.9238 273.2230 15.33448189 28939
Epoch: 2026-09-04T04:38Z
TLE epoch observation values (Epoch: 2026-09-04T04:38:28.636Z)
Latitude
-0.00007°
Longitude
153.35417°
Altitude
468.57 km
Speed
7.632 km/s
True Right ascension
13h 45m 10s
True Declination
0° 00' 00"
Sunlit
Object was in daylight at epoch
Visualization orbit readout
Latitude
Unknown
Longitude
Unknown
Altitude
Unknown
Speed
Unknown
Apparent Right ascension
Unknown
Apparent Declination
Unknown
Sunlit
N/A
Visualization observer readout
Local Sidereal Time
01:56:44
Azimuth
Unknown
Elevation
Unknown
Doppler factor
Unknown
Orbital elements
Apogee altitude
463.825 km
Perigee altitude
461.128 km
Semi-major axis
6,840.613 km
Eccentricity
0.0002
Inclination
97.2854°
RAAN
206.2942°
Arg. of periapsis
86.9238°
True anomaly
273.20045°
Mean anomaly
273.223°
Eccentric anomaly
273.21172°
Mean motion
3.83619 °/min
Orbital period
93.84 mins
BSTAR
0.00033384
Loading maneuver chart data...
Computing Atmospheric mass density...
Loading historical data...
Loading historical data...
Loading historical data...
Loading historical data...
Loading historical data...
Loading historical data...
Loading historical data...

Documentation

Showing up to 5 results
|